Regional Weather Roundup
Issued by NWS

Home | Current Version | Previous Version | Text Only | Print | Product List | Glossary Off
Versions: 1 2 3 4 5 6 7 8 9 10 11 12 13 14 15 16 17 18 19 20 21 22 23 24 25 26 27 28 29 30 31 32 33 34 35 36 37 38 39 40 41 42 43 44 45 46 47 48 49 50

000
ASUS45 KBOU 042207
RWRCO

WEATHER ROUNDUP FOR COLORADO
NATIONAL WEATHER SERVICE DENVER/BOULDER CO
400 PM MDT TUE AUG 04 2015

NOTE: "FAIR" INDICATES FEW OR NO CLOUDS BELOW 12000 FEET WITH NO
SIGNIFICANT WEATHER AND/OR OBSTRUCTIONS TO VISIBILITY.

COZ001>005-013-030-031-042300-
...NORTHWEST COLORADO...

CITY           SKY/WX    TMP DP  RH WIND       PRES   REMARKS
CRAIG          NOT AVBL
HAYDEN         SUNNY     79  37  22 NW14G26   30.22S
MEEKER         MOSUNNY   86  33  15 W22G32    30.21F
MOUNT WERNER   NOT AVBL
STEAMBOAT SPGS   N/A    N/A N/A N/A MISG        N/A
WALDEN         PTSUNNY   73  37  27 W20G30    30.31S
$$

COZ006>008-011-042300-
...WEST CENTRAL VALLEYS...

CITY           SKY/WX    TMP DP  RH WIND       PRES   REMARKS
GRAND JUNCTION MOSUNNY   90  41  18 W9G17     30.08F
MONTROSE       MOSUNNY   87  44  22 MISG      30.18F
EAGLE          MOSUNNY   81  39  22 W12G20    30.23F
RIFLE          MOSUNNY   86  39  19 W8        30.13F
DELTA          MOSUNNY   91  35  14 CALM      30.12F
NUCLA          NOT AVBL
$$

COZ017>023-064>068-042300-
...SOUTHWEST COLORADO...

CITY           SKY/WX    TMP DP  RH WIND       PRES   REMARKS
DURANGO        SUNNY     86  34  15 W16G26    30.23F
CORTEZ         SUNNY     88  37  16 W13G26    30.20S
PAGOSA SPRINGS MOSUNNY   83  27  13 W12G22    30.30F
TELLURIDE      MOSUNNY   71  32  24 W7        30.47F
WOLF CREEK PAS NOT AVBL
$$

COZ009-010-012-014-032>034-037-058>063-042300-
...CENTRAL COLORADO...

CITY           SKY/WX    TMP DP  RH WIND       PRES   REMARKS
ASPEN          PTSUNNY   75  41  29 N12G22    30.31F
BUENA VISTA    PTSUNNY   79  28  15 W17G26    30.29F
COPPER MTN     CLOUDY    55  32  41 W29G38    30.62S
BERTHOUD PASS  FAIR      52  41  66 NW36G49   30.60S
COTTONWOOD PAS MOSUNNY   68  32  26 CALM      30.45S
GUNNISON       MOSUNNY   79  30  17 W13G22    30.33F
KREMMLING      SUNNY     79  19  11 NW20G30   30.28F
LEADVILLE      CLOUDY    67  33  28 W18G29    30.45F
MONARCH PASS   MOSUNNY   59  32  36 W29G39    30.71F
SALIDA         PTSUNNY   82  33  16 NW14G22   30.34R
SUNLIGHT       MOSUNNY   64  41  42 SW5       30.58S
WILKERSON PASS NOT AVBL
$$

COZ069>075-042300-
...SAN LUIS VALLEY/SANGRE DE CRISTO MOUNTAINS...

CITY           SKY/WX    TMP DP  RH WIND       PRES   REMARKS
ALAMOSA        MOSUNNY   82  37  20 N14G20    30.27F
LA VETA PASS   MOSUNNY   70  36  28 MISG      30.47S
SAGUACHE       MOSUNNY   81  36  19 N21G28    30.31S
$$

COZ035-036-038>040-042300-
...NORTHERN COLORADO FRONT RANGE...

CITY           SKY/WX    TMP DP  RH WIND       PRES   REMARKS
DENVER INTL AP MOSUNNY   91  34  13 N18       30.04S
DMNS CITY PARK   N/A     89  33  13 W15G22    30.04S
AURORA         MOSUNNY   90  33  13 NW18G31   30.06F
FRONT RANGE AP MOSUNNY   90  34  13 NW12G22   30.06F
ERIE MUNI ARPT SUNNY     92  31  11 W17G29    30.02S
BOULDER MUN AP SUNNY     90  34  13 W28       30.04S
CENTENNIAL     MOSUNNY   88  37  16 N7        30.08S
BROOMFIELD     PTSUNNY   91  32  12 W29G35    30.08R
FORT COLLINS   MOSUNNY   90  45  20 NW22G29   30.01S
LONGMONT       MOSUNNY   93  36  13 NE6       30.03F
$$

COZ041-046-047-076>085-087-088-042300-
...PIKES PEAK/PALMER DIVIDE AND SOUTHERN FOOTHILLS...

CITY           SKY/WX    TMP DP  RH WIND       PRES   REMARKS
COLO. SPRINGS  MOSUNNY   91  33  12 NW13G22   30.10F
A. F. ACADEMY  SUNNY     86  28  12 W13G24    30.13R
ELLICOTT       MOSUNNY  N/A N/A N/A CALM      30.10S
FALCON         MOSUNNY   81  42  24 NE6       30.18S
FORT CARSON    MOSUNNY   91  34  13 NW21G26   30.06F
LIMON          MOSUNNY   89  38  16 N10G21    30.05F
MONUMENT HILL  PTSUNNY   77  37  24 N3        30.19S
TRINIDAD       MOSUNNY   91  36  14 NW18G28   30.07F
$$

COZ042>045-048>051-090-091-042300-
...NORTHEAST COLORADO...

CITY           SKY/WX    TMP DP  RH WIND       PRES   REMARKS
GREELEY ARPT   MOSUNNY   86  48  26 E14G20    30.02F
AKRON          CLOUDY    80  50  34 NE14      30.05R
BURLINGTON     MOSUNNY   81  58  45 NE21G31   30.00R
WRAY           CLOUDY    75  59  58 NE12      30.01S
STERLING       CLOUDY    77  57  50 E8        30.00F
HOLYOKE        CLOUDY    73  64  73 E7        30.01F
FORT MORGAN    CLOUDY    84  44  24 N10G18    30.03S
$$

COZ086-089-092>099-042300-
...SOUTHEAST COLORADO...

CITY           SKY/WX    TMP DP  RH WIND       PRES   REMARKS
PUEBLO         MOSUNNY   97  40  14 W15G23    29.96F
LA JUNTA       SUNNY     93  49  22 E5        29.95F
LAMAR          SUNNY     95  52  23 NE6       29.91F
SPRINGFIELD      N/A     96  40  14 W13G18    29.96F
$$



USA.gov is the U.S. government's official web portal to all federal, state and local government web resources and services.